Location: Lane
(33.5226°N, 79.8788°W)
Time: 05:33:58
(UTC+00:00)

Vanguard 2 - Pass Details

Date: 04 October 2022
Orbit: 553 x 2933 km, 32.9° (Epoch: 26 November)

Event Time Altitude Azimuth Distance (km) Brightness Sun altitude
Rises 01:30:02 0° 282° (WNW) 6,698 13.5 -31.5°
Reaches altitude 10° 01:35:31 10° 272° (W) 5,758 12.7 -32.6°
Maximum altitude 01:48:42 27° 224° (SW) 4,301 11.4 -35.2°
Enters shadow 01:58:49 13° 179° (S) 4,748 11.3 -37.2°
Drops below altitude 10° 02:00:09 10° 174° (S) 4,916 - -37.4°
Sets 02:04:26 0° 162° (SSE) 5,584 - -38.2°
